Location: Kaltenbach
(49.2000°N, 7.7500°E)
Time: 10:43:25
(UTC+00:00)

Cosmos 2366 rocket - Pass Details

Date: 24 January 2020
Orbit: 956 x 996 km, 82.9° (Epoch: 18 February)

Event Time Altitude Azimuth Distance (km) Brightness Sun altitude
Rises 18:27:42 0° 198° (SSW) 3,647 7.3 -21.9°
Reaches altitude 10° 18:30:13 10° 202° (SSW) 2,710 6.6 -22.4°
Maximum altitude 18:36:22 63° 283° (WNW) 1,089 4.4 -23.4°
Drops below altitude 10° 18:42:39 10° 4° (N) 2,756 6.3 -24.4°
Sets 18:45:14 0° 8° (N) 3,714 7.0 -24.8°
